Wind_Speed
2 6 8 10 10 12 8 3 9 17 14 13 14 6 21 18 22 21 18 19 19 18 16 15 15 14 13 13 12 12 12 11 11 10 10 9 7 7 6 4 3 2 2
3 6 8 9 6 2 4 11 19 10 14 11 14 16 16 16 17 18 21 22 21 20 17 15 15 15 15 13 13 13 12 12 11 11 11 10 10 8 7 5 4 3 3
5 4 7 9 7 7 8 10 16 20 17 16 13 13 19 17 11 16 17 19 18 19 19 18 17 16 15 15 15 14 14 13 12 12 12 11 10 9 7 6 5 4 4
7 4 6 6 7 5 7 9 12 13 11 9 16 12 12 10 11 12 16 15 16 16 17 17 18 18 17 15 13 12 12 13 13 12 11 11 11 10 9 8 7 6 5
8 5 3 4 7 4 2 6 12 8 8 10 16 14 1 16 8 7 15 13 13 12 15 15 16 16 16 16 16 14 13 11 11 11 11 10 10 9 9 9 9 8 8
11 7 7 6 1 2 3 6 5 8 5 8 9 11 10 16 12 9 15 17 13 10 9 12 12 12 12 13 13 13 13 13 13 12 11 10 9 9 9 8 8 8 8
13 10 10 7 3 2 1 1 1 3 3 6 10 11 8 12 11 11 11 12 5 12 13 13 9 7 9 9 8 8 9 9 10 11 11 11 10 8 8 7 6 5 5
14 14 13 9 10 10 7 4 2 1 3 4 7 9 11 8 9 6 7 8 4 4 8 10 9 5 6 6 5 4 5 5 5 6 6 7 7 7 7 6 5 4 3
15 14 15 15 14 13 8 7 3 3 4 5 2 5 6 5 4 5 4 3 2 4 3 5 4 2 2 3 5 4 3 5 5 5 5 6 6 5 4 4 4 3 3
15 14 18 19 18 14 11 7 7 5 5 4 5 3 4 3 4 3 4 6 5 4 4 1 2 1 2 4 3 4 4 4 5 5 5 5 5 5 5 4 4 3 3
12 13 16 21 20 17 14 9 10 8 9 7 9 7 4 5 5 5 6 3 4 5 3 5 5 2 2 4 4 3 3 3 4 5 5 5 5 6 5 5 6 6 5
14 16 15 20 24 18 16 12 14 10 11 11 11 12 8 7 5 5 6 7 8 6 7 4 4 6 9 8 8 8 8 7 6 6 7 6 7 7 7 7 8 9 10
14 17 20 22 25 20 18 15 16 15 14 13 12 11 11 11 9 10 11 12 13 12 11 10 8 7 9 10 12 12 11 12 9 9 8 9 9 10 11 12 13 14 14
14 13 18 24 27 25 21 18 18 17 14 15 14 12 12 12 11 12 12 13 16 14 14 14 12 13 11 12 13 15 14 13 14 13 11 11 11 12 13 15 16 16 17
11 9 13 20 20 24 21 20 21 19 18 17 15 16 14 14 16 14 13 14 18 17 16 16 12 13 15 11 14 13 15 16 17 17 15 14 13 14 14 15 14 14 16
8 8 4 16 24 23 21 20 21 21 18 18 16 17 16 16 17 17 17 16 16 18 18 16 14 13 15 16 17 17 15 18 17 19 16 16 17 16 16 15 14 14 15
12 9 7 6 10 18 22 16 15 17 17 17 16 18 18 18 18 18 17 17 15 16 19 18 16 12 15 15 16 15 18 21 21 23 22 22 21 21 21 19 17 16 17
11 12 12 12 13 14 15 15 18 19 19 19 19 20 20 19 19 18 18 17 17 16 17 20 20 19 17 15 16 17 18 21 23 23 25 26 26 25 26 23 21 18 17
10 11 13 15 17 17 18 19 21 21 21 23 21 24 22 21 20 20 19 19 18 18 17 20 21 21 22 21 22 22 23 27 26 27 28 26 31 30 32 26 24 20 18
7 10 12 14 16 18 19 21 22 23 24 23 22 21 21 20 20 20 20 20 20 19 19 19 21 21 22 23 24 23 27 31 31 32 32 32 34 34 35 25 26 24 21
11 11 10 12 14 16 18 19 20 21 20 20 19 18 20 20 20 20 21 21 19 20 21 19 20 22 27 28 29 29 30 30 32 34 35 34 34 37 39 26 28 24 26
11 13 14 13 13 15 16 16 16 17 17 18 19 18 20 21 20 19 20 20 19 17 20 21 20 23 25 28 31 32 31 32 33 38 37 34 32 35 33 27 26 26 29
13 14 15 16 16 16 17 18 18 18 17 19 22 21 21 20 19 20 20 22 21 19 22 22 24 26 26 31 29 30 32 33 34 38 36 36 37 36 31 31 29 28 30
13 14 17 17 18 19 19 19 21 22 21 21 23 23 22 22 21 23 23 25 25 24 25 25 27 28 30 31 34 35 36 35 38 41 37 33 34 28 23 26 31 31 31
23 21 19 18 19 20 21 21 23 25 26 26 25 25 25 25 27 28 28 27 26 27 27 28 28 29 31 33 35 35 35 36 40 41 37 31 29 24 17 20 25 28 32
31 28 26 24 22 23 24 27 27 26 27 29 28 29 29 31 31 31 31 31 30 30 29 29 29 31 32 32 32 35 34 35 35 34 32 29 28 27 25 25 28 31 33
Wind_Direction
136 79 71 94 76 79 43 101 110 66 88 91 78 171 76 80 79 71 66 70 72 70 68 71 76 77 77 76 77 76 73 71 71 74 77 81 79 80 84 96 113 132 132
185 84 79 87 99 89 98 55 358 95 87 86 84 73 84 83 86 84 75 73 72 73 70 69 68 72 77 79 80 82 82 81 80 76 74 76 77 79 86 92 104 111 120
195 111 84 97 90 65 48 62 53 68 76 86 95 72 95 92 85 87 97 80 74 73 71 72 74 69 68 70 72 75 78 82 81 79 77 79 79 76 79 81 81 90 105
200 208 111 99 108 102 75 62 64 62 58 82 82 67 60 72 78 97 94 91 86 80 76 73 72 72 72 72 69 69 76 79 83 82 84 84 87 88 87 85 85 86 90
204 207 217 112 108 114 55 71 59 71 59 56 72 70 24 82 67 128 101 92 89 82 80 76 71 71 67 68 71 72 72 77 83 87 88 85 85 92 99 104 108 108 102
225 201 223 200 173 84 34 56 37 70 83 73 77 89 39 42 31 32 75 84 82 77 74 83 74 70 65 65 63 66 64 66 68 73 80 86 90 90 91 93 94 94 90
227 227 217 286 223 206 183 246 97 64 38 60 40 47 79 49 26 58 76 73 70 82 80 92 74 81 76 64 65 65 62 57 58 61 62 64 69 83 91 92 92 92 95
230 231 225 212 223 232 208 211 227 280 334 21 33 44 48 72 35 44 74 84 82 17 80 85 86 71 86 69 43 50 44 43 46 51 51 49 53 55 65 82 87 86 98
238 234 235 231 223 229 232 223 223 281 320 343 359 6 14 27 17 8 24 34 43 44 93 75 62 62 84 70 25 31 25 8 17 26 36 32 18 12 19 27 44 61 61
234 230 233 240 234 236 235 239 226 236 266 278 285 300 324 327 307 302 353 18 351 353 13 306 117 211 339 15 359 18 8 354 353 349 357 354 359 357 350 338 338 337 336
241 250 238 235 237 231 239 232 251 257 255 281 284 293 289 286 283 282 302 314 270 303 287 292 321 296 293 319 315 320 304 307 312 322 325 332 331 331 328 324 319 319 313
249 247 238 227 232 236 232 235 241 253 233 275 276 293 291 262 264 278 305 299 279 242 252 270 284 310 313 305 311 306 298 292 293 294 295 298 305 309 308 300 301 304 303
283 249 237 233 232 234 234 232 243 242 247 258 267 274 279 284 299 309 308 311 306 300 298 303 309 309 298 306 305 297 297 296 284 280 280 286 287 292 291 288 288 289 292
280 254 246 235 231 224 224 232 240 246 253 258 259 261 266 278 290 290 299 306 302 301 303 305 314 316 285 317 306 297 297 289 286 277 273 270 270 272 278 282 285 284 285
266 271 271 228 226 220 222 226 235 240 248 255 255 263 274 283 287 286 295 300 294 293 292 294 302 301 298 279 302 297 288 286 283 279 279 277 274 275 274 279 282 285 282
267 276 273 229 214 209 228 232 239 242 246 247 252 268 280 280 283 286 288 288 285 285 291 293 297 293 289 297 293 306 287 289 287 282 279 274 269 276 274 275 281 286 284
249 249 241 181 201 220 230 238 252 250 241 248 256 262 269 274 280 285 285 286 282 283 287 286 280 291 289 288 294 296 294 289 291 291 287 280 271 275 275 274 273 276 281
251 250 241 231 225 230 232 238 244 244 247 252 257 262 265 270 277 281 286 284 285 282 287 294 299 299 294 294 294 294 294 290 295 297 286 283 282 276 272 271 270 270 275
256 255 250 245 246 245 242 242 241 241 243 251 249 259 263 265 267 274 281 281 284 287 293 297 303 303 304 310 311 308 311 310 304 295 309 286 283 277 290 261 267 268 274
267 258 256 251 246 246 244 250 249 249 254 255 255 255 256 257 263 271 277 282 285 295 301 301 301 305 308 314 316 310 306 306 305 300 298 296 287 284 288 251 256 266 269
279 283 272 260 251 247 251 253 253 255 258 258 260 257 258 261 266 271 276 281 286 291 292 296 299 297 298 307 306 304 304 299 296 294 298 299 291 289 291 253 248 259 267
271 275 277 277 269 259 257 258 261 264 267 268 268 268 268 271 271 272 274 279 279 286 291 292 293 295 299 298 300 300 302 299 297 295 297 296 293 286 280 274 242 255 266
258 265 269 275 277 274 266 263 264 266 269 276 277 277 275 273 272 271 273 274 273 269 269 277 282 286 290 291 290 295 295 297 294 294 298 298 293 290 276 260 262 265 256
265 265 262 262 264 267 269 268 266 264 264 269 273 276 275 274 273 272 269 270 276 282 282 283 283 287 291 296 297 300 301 302 298 300 306 297 301 299 276 255 252 263 262
264 268 276 275 268 267 265 260 261 266 265 265 265 264 264 268 270 270 269 271 273 274 277 283 284 286 288 290 295 300 301 300 302 299 301 297 300 301 282 264 258 263 266
265 268 271 273 272 270 267 266 265 263 266 267 264 261 261 262 264 265 270 277 283 284 284 281 282 285 289 292 296 296 300 301 301 298 298 297 294 293 290 283 279 279 276
Height
5937 5940 5939 5941 5940 5937 5935 5936 5937 5934 5934 5936 5931 5924 5929 5932 5930 5930 5931 5926 5926 5927 5930 5931 5930 5930 5930 5930 5931 5930 5929 5929 5929 5929 5929 5928 5927 5927 5926 5928 5929 5930 5930
5938 5940 5943 5942 5940 5938 5939 5939 5928 5938 5937 5934 5933 5933 5934 5934 5931 5934 5933 5932 5931 5931 5934 5934 5933 5932 5931 5932 5933 5932 5930 5930 5930 5930 5930 5929 5928 5928 5929 5929 5930 5930 5931
5938 5940 5944 5945 5945 5945 5940 5942 5943 5936 5938 5937 5933 5939 5934 5935 5941 5938 5933 5933 5937 5936 5937 5937 5935 5935 5934 5934 5934 5933 5932 5931 5931 5931 5931 5931 5930 5930 5930 5931 5931 5932 5932
5939 5940 5944 5945 5946 5946 5945 5945 5943 5940 5940 5944 5941 5944 5941 5939 5940 5936 5935 5935 5936 5939 5939 5939 5938 5937 5937 5935 5935 5936 5935 5933 5932 5932 5932 5932 5931 5931 5931 5932 5932 5932 5933
5941 5941 5942 5944 5946 5946 5946 5944 5942 5943 5943 5945 5944 5944 5938 5934 5940 5938 5938 5937 5939 5941 5939 5940 5940 5940 5940 5939 5938 5937 5937 5936 5934 5933 5932 5932 5932 5932 5932 5933 5933 5933 5934
5941 5943 5943 5940 5943 5946 5945 5944 5945 5944 5941 5941 5947 5947 5939 5940 5940 5942 5943 5943 5943 5943 5942 5938 5941 5942 5942 5941 5941 5939 5940 5938 5937 5936 5934 5933 5933 5932 5932 5933 5932 5933 5933
5941 5943 5944 5941 5944 5945 5946 5945 5947 5948 5946 5945 5946 5944 5943 5944 5942 5945 5949 5945 5947 5944 5940 5938 5940 5941 5941 5942 5941 5940 5939 5939 5938 5937 5936 5936 5935 5934 5933 5933 5933 5933 5933
5938 5940 5943 5945 5946 5945 5944 5947 5948 5948 5948 5946 5945 5947 5944 5946 5946 5949 5949 5949 5947 5945 5940 5936 5941 5943 5940 5940 5942 5941 5940 5939 5938 5938 5937 5937 5936 5935 5935 5934 5934 5934 5934
5936 5938 5940 5942 5944 5943 5945 5946 5948 5947 5947 5946 5947 5947 5946 5944 5945 5946 5947 5946 5947 5944 5941 5939 5942 5942 5943 5940 5941 5940 5940 5940 5939 5938 5938 5937 5937 5936 5936 5935 5934 5933 5933
5934 5936 5937 5938 5940 5943 5944 5946 5946 5946 5946 5945 5947 5948 5947 5947 5946 5947 5946 5945 5944 5943 5939 5940 5941 5941 5942 5940 5941 5940 5940 5940 5940 5939 5938 5937 5936 5936 5935 5935 5934 5934 5934
5932 5933 5934 5935 5935 5940 5942 5943 5943 5943 5944 5944 5944 5947 5948 5946 5946 5944 5944 5944 5943 5942 5941 5940 5941 5942 5941 5939 5939 5938 5938 5938 5938 5938 5937 5936 5936 5935 5935 5934 5934 5934 5933
5929 5929 5931 5931 5932 5936 5938 5940 5940 5940 5940 5941 5942 5942 5943 5944 5944 5942 5941 5940 5940 5941 5940 5940 5940 5939 5940 5939 5937 5937 5937 5936 5935 5935 5935 5934 5933 5933 5933 5933 5932 5932 5931
5924 5924 5925 5926 5926 5931 5935 5937 5937 5938 5939 5940 5940 5940 5939 5939 5938 5937 5938 5937 5936 5935 5935 5935 5937 5938 5938 5936 5936 5936 5935 5934 5933 5932 5931 5930 5930 5929 5929 5929 5929 5928 5928
5917 5918 5919 5921 5922 5926 5930 5932 5934 5935 5936 5937 5937 5938 5938 5937 5936 5936 5937 5936 5935 5935 5934 5934 5935 5935 5935 5935 5934 5933 5932 5931 5930 5928 5926 5925 5924 5923 5924 5924 5924 5923 5923
5915 5914 5912 5916 5919 5921 5927 5927 5929 5931 5933 5933 5934 5934 5933 5933 5933 5933 5934 5933 5932 5932 5932 5931 5933 5932 5930 5927 5928 5928 5927 5928 5927 5925 5923 5922 5922 5920 5919 5919 5919 5918 5918
5912 5911 5910 5912 5912 5917 5921 5922 5924 5927 5929 5929 5929 5929 5928 5929 5929 5930 5931 5931 5930 5929 5929 5929 5930 5930 5928 5923 5925 5925 5924 5923 5922 5922 5919 5918 5917 5916 5914 5914 5913 5913 5913
5909 5909 5911 5911 5914 5916 5919 5916 5918 5920 5922 5923 5925 5925 5925 5925 5926 5926 5927 5928 5928 5926 5924 5926 5927 5927 5926 5925 5923 5922 5920 5918 5919 5919 5916 5913 5911 5911 5910 5910 5908 5907 5907
5906 5907 5908 5909 5910 5911 5913 5914 5916 5917 5918 5919 5921 5921 5922 5922 5922 5922 5922 5923 5924 5923 5922 5920 5921 5921 5921 5922 5922 5920 5918 5916 5915 5913 5912 5908 5907 5905 5905 5905 5904 5901 5900
5905 5905 5905 5906 5906 5907 5909 5910 5911 5912 5913 5913 5915 5916 5916 5917 5917 5918 5919 5919 5920 5920 5920 5918 5917 5918 5915 5915 5915 5914 5912 5910 5909 5907 5902 5899 5897 5899 5895 5897 5898 5895 5893
5901 5902 5903 5904 5905 5905 5906 5906 5906 5907 5908 5908 5910 5911 5911 5912 5912 5913 5914 5915 5915 5914 5915 5914 5913 5912 5911 5912 5912 5911 5909 5905 5901 5896 5895 5893 5892 5888 5886 5887 5889 5889 5886
5898 5899 5899 5900 5901 5902 5902 5902 5903 5904 5905 5906 5907 5908 5907 5909 5910 5910 5911 5911 5911 5911 5910 5910 5909 5908 5905 5903 5902 5902 5901 5898 5894 5889 5887 5885 5884 5880 5877 5876 5877 5880 5880
5893 5894 5894 5895 5896 5897 5897 5898 5900 5900 5902 5902 5903 5904 5905 5906 5906 5906 5906 5905 5905 5904 5903 5903 5902 5901 5900 5898 5895 5893 5891 5889 5888 5881 5881 5879 5875 5873 5873 5874 5871 5870 5870
5890 5890 5889 5890 5890 5891 5893 5894 5894 5895 5897 5898 5898 5900 5901 5901 5902 5902 5900 5899 5898 5897 5896 5895 5895 5893 5893 5890 5888 5885 5883 5881 5878 5874 5874 5871 5865 5863 5862 5863 5863 5863 5862
5885 5885 5886 5886 5885 5885 5886 5888 5889 5889 5890 5891 5892 5893 5895 5895 5894 5894 5894 5893 5893 5892 5890 5889 5888 5887 5885 5882 5879 5876 5873 5871 5868 5863 5862 5861 5856 5853 5853 5852 5855 5855 5855
5879 5880 5881 5881 5881 5881 5882 5881 5882 5883 5883 5883 5884 5886 5887 5887 5887 5887 5888 5888 5887 5886 5884 5883 5881 5880 5878 5875 5872 5869 5865 5862 5859 5853 5852 5851 5847 5845 5845 5844 5845 5846 5846
5873 5875 5877 5877 5876 5875 5876 5877 5877 5876 5877 5878 5878 5878 5878 5878 5878 5878 5880 5880 5880 5877 5876 5875 5873 5872 5869 5866 5864 5860 5857 5854 5852 5846 5843 5843 5840 5839 5839 5839 5838 5838 5837